User: anonymous   Login
Location: Ch�risy
(50.2331°N, 2.9131°E)
Time: 20:16:23
(UTC+00:00)
Language:

CSL-04 DEB - Orbit

View from above orbital plane
View from above orbital plane
View from above satellite
View from above satellite

Ground track
Ground track

The orbit data is extracted from the following two-line orbital elements,

1 26121U 99057H   21112.10760872  .00000248  00000-0  29602-4 0  9997
2 26121  98.7587 303.7513 0057904 290.3345  69.1656 14.93764837143677
Epoch (UTC): 22 April 2021 02:34:57
Eccentricity: 0.0057904
inclination: 98.7587°
perigee height: 546 km
apogee height: 626 km
right ascension of ascending node: 303.7513°
argument of perigee: 290.3345°
revolutions per day: 14.93764837
mean anomaly at epoch: 69.1656°
orbit number at epoch: 14367

The dashed part of the orbit path shows where the satellite is in the earth's shadow,  

DLR